Content
SEND FEEDBACK

Daily
Averages
Monthly
Summary
Canada

CALGARY, ALBERTA


Home > North America > Canada > Alberta
Elevation: 3556 feet     Latitude: 51 06N     Longitude: 114 01W

WEATHER
 
SELECT A DAY
Number of Records: 194,628;   Date Range: 1/1/95 - 9/29/14
 
SHARE

PRINT THIS DATA

[ ← Previous Day ]
WEATHER ALMANAC - APRIL 1, 2013
[ Next Day → ]
[ °C ]   °F
Weather ElementAverageHighLow
Temperature36.9 °F51 °F (6:00 pm)24 °F (6:00 am)
Dewpoint25.7 °F32 °F (6:42 pm)20 °F (6:00 am)
Humidity65.2 %86 % (2:00 am)31 % (12:00 pm)
Barometer30.21 in30.28 in (6:00 am)30.12 in (7:00 pm)
Wind Speed11.1 mph19.6 mph (2:00 pm)
Wind Gust26.5 mph (2:00 pm)
Weather ElementAverage
Visibility29.4 mi
Wind DirectionSSE (159 °)

Weather ElementTotal
Precipitation---
Heating Degree Days27.5 (Base 65)
Averaged from 29 records on April 1, 2013
WEATHER CONDITIONS BREAKOUT
WIND DIRECTION BREAKOUT
WEATHER BY HOUR - APRIL 1, 2013
[ °C ]   °F
Local TimeTemperatureDewpointHumidityBarometerVisibilityWind DirectionWind SpeedGust SpeedPrecipitationEventsConditions
12:00 AM32.0 °F24.8 °F75 %30.24 in15.0 miSSE (150°)4.6 mphClear
1:00 AM30.2 °F24.8 °F80 %30.25 in15.0 miSouth (170°)5.8 mphClear
2:00 AM28.4 °F24.8 °F86 %30.25 in15.0 miSouth (170°)4.6 mphClear
3:00 AM28.4 °F24.8 °F86 %30.26 in15.0 miSouth (190°)4.6 mphClear
4:00 AM26.6 °F21.2 °F80 %30.26 in15.0 miWest (270°)3.5 mphClear
5:00 AM24.8 °F21.2 °F86 %30.27 in15.0 miCalmClear
6:00 AM24.8 °F21.2 °F86 %30.28 in15.0 miSW (220°)6.9 mphPartly Cloudy
6:00 AM24.0 °F20.0 °F80 %30.28 in15.0 miSW (220°)5.8 mphHaze
7:00 AM26.6 °F23.0 °F86 %30.27 in15.0 miSSW (200°)8.1 mphPartly Cloudy
8:00 AM28.4 °F23.0 °F80 %30.28 in40.0 miSSW (210°)6.9 mphClear
9:00 AM32.0 °F24.8 °F75 %30.27 in40.0 miSouth (190°)6.9 mphClear
9:45 AM35.6 °F24.8 °F65 %30.26 in40.0 miSouth (180°)11.5 mphClear
10:00 AM37.4 °F24.8 °F60 %30.25 in40.0 miSouth (190°)12.7 mph19.6 mphClear
11:00 AM41.0 °F23.0 °F49 %30.23 in40.0 miSouth (170°)13.8 mphClear
12:00 PM42.8 °F23.0 °F46 %30.22 in40.0 miSSE (150°)18.4 mphClear
12:00 PM43.0 °F23.0 °F31 %30.22 in37.0 miSSE (150°)18.4 mph
1:00 PM44.6 °F26.6 °F49 %30.20 in40.0 miSouth (170°)18.4 mphPartly Cloudy
2:00 PM48.2 °F28.4 °F46 %30.18 in40.0 miSSE (150°)19.6 mph26.5 mphClear
3:00 PM48.2 °F28.4 °F46 %30.17 in40.0 miSE (140°)17.3 mph26.5 mphClear
4:00 PM50.0 °F30.2 °F47 %30.15 in40.0 miSSE (150°)15.0 mph25.3 mphClear
5:00 PM50.0 °F30.2 °F47 %30.14 in40.0 miSE (140°)13.8 mph25.3 mphClear
6:00 PM50.0 °F30.2 °F47 %30.13 in40.0 miSE (140°)16.1 mph25.3 mphClear
6:00 PM51.0 °F30.0 °F31 %30.13 in37.0 miSE (140°)16.1 mph
6:42 PM46.4 °F32.0 °F57 %30.13 in40.0 miEast (100°)15.0 mphClear
7:00 PM42.8 °F32.0 °F66 %30.12 in40.0 miEast (100°)15.0 mphClear
8:00 PM37.4 °F28.4 °F70 %30.15 in40.0 miESE (110°)13.8 mphPartly Cloudy
9:00 PM33.8 °F26.6 °F75 %30.15 in15.0 miSE (130°)11.5 mphPartly Cloudy
10:00 PM32.0 °F26.6 °F80 %30.15 in15.0 miSSE (160°)10.4 mphClear
11:00 PM30.2 °F24.8 °F80 %30.13 in15.0 miSSE (150°)6.9 mphPartly Cloudy
Hourly data recorded from CYYC, located miles away from Calgary, Alberta







STORIES FROM OUR PARTNERS